Terminal Aerodrome Forecast
Issued by NWS

Home | Current Version | Previous Version | Text Only | Print | Product List | Glossary On
Versions: 1 2 3 4 5 6 7 8 9 10 11 12
000
FTUS46 KPDT 040520
TAFALW
TAF
KALW 040520Z 0406/0506 16007KT P6SM FEW120 BKN150
     FM041500 20009KT P6SM SKC
     FM041800 23010G17KT P6SM SKC
     FM050400 19006KT P6SM SKC=

USA.gov is the U.S. government's official web portal to all federal, state and local government web resources and services.